RH
38 37 35 37 36 32 32 35 29 22 17 19 18 16 14 15 17 17 18 19 21 20 21 21 19 18 17 18 19 20 19 18 16 16 15 15 15 17 19 20 20 20 20 19
33 33 31 31 33 35 32 29 23 18 18 18 16 16 15 15 16 17 18 20 20 21 21 21 19 18 18 18 20 20 19 17 18 18 18 18 20 21 21 22 23 23 23 21
36 37 36 35 33 28 24 20 19 19 18 17 18 18 16 14 16 17 18 19 20 20 21 21 20 19 19 19 19 20 21 20 20 20 20 22 22 23 24 26 26 26 26 23
35 36 31 27 22 21 20 19 18 19 21 23 21 26 16 15 17 17 19 20 21 23 22 20 20 20 20 20 22 23 23 23 22 22 23 24 25 26 27 28 28 26 22 19
31 30 26 21 19 18 19 20 21 21 24 24 21 23 16 19 20 22 22 22 23 23 21 21 21 21 22 23 24 25 26 25 24 26 26 26 27 27 28 27 24 21 19 16
22 21 20 19 19 19 20 21 24 28 28 29 21 22 22 24 26 24 24 23 23 22 21 22 22 23 24 26 26 27 27 26 27 28 27 27 28 28 26 24 21 20 18 15
19 19 18 18 20 22 24 24 26 25 33 28 27 27 24 24 24 22 22 23 22 23 24 24 24 25 27 28 28 28 29 29 29 29 29 28 27 26 24 23 22 21 17 15
22 24 22 23 23 24 25 24 28 25 34 35 26 28 23 21 21 21 23 23 24 24 25 25 26 27 28 29 30 32 31 29 29 28 28 26 26 25 25 25 24 20 17 17
24 23 23 24 24 23 25 29 27 29 28 27 24 20 21 21 21 23 24 24 26 27 26 26 27 28 32 34 34 31 28 28 27 27 27 27 27 27 27 28 24 20 20 21
22 22 23 24 24 25 25 25 28 30 23 25 27 24 27 24 24 24 25 27 27 26 27 30 33 35 36 32 29 27 26 26 27 28 29 29 31 32 31 28 23 23 24 23
22 22 22 22 23 23 25 26 27 28 31 32 30 24 25 26 26 27 26 25 26 29 33 35 36 32 29 27 26 25 26 28 29 30 31 32 33 31 29 25 25 27 26 25
21 22 23 21 21 22 24 24 25 29 26 34 42 38 27 26 27 27 28 29 32 35 35 32 27 25 24 25 25 27 26 27 29 30 32 33 32 29 27 28 28 26 26 27
23 22 23 23 25 25 23 25 29 34 36 35 39 31 28 29 30 30 32 35 36 32 26 25 24 25 26 26 26 28 28 30 32 33 33 31 30 29 27 26 25 27 28 28
24 26 25 28 27 28 27 27 27 29 42 34 35 31 32 34 35 36 36 31 26 25 25 26 26 27 27 27 27 28 31 33 33 32 31 29 26 25 26 28 29 29 30 34
25 23 28 29 30 31 32 32 32 33 35 38 36 38 35 34 32 29 26 24 25 26 27 28 27 27 29 26 28 30 33 33 32 30 27 27 28 29 30 29 29 32 37 43
31 32 36 35 39 41 41 40 42 42 39 34 30 30 29 26 26 25 25 27 28 28 27 28 29 27 26 29 32 33 34 32 31 31 30 30 31 30 30 32 34 40 42 46
39 44 46 45 45 43 37 30 28 26 24 22 23 23 26 26 26 27 29 30 29 28 28 28 27 29 32 33 34 35 35 35 34 31 30 32 31 32 33 37 40 43 49 57
46 47 48 50 37 34 20 22 20 20 21 23 25 26 26 28 30 32 34 35 33 33 31 31 32 32 33 34 35 36 37 37 31 31 34 35 34 34 37 40 44 51 61 72
40 40 43 41 42 25 18 18 19 21 25 30 32 35 37 37 37 38 38 38 37 33 31 29 30 31 33 36 38 39 38 32 34 37 36 37 35 35 39 44 53 65 76 77
31 30 29 35 32 29 14 22 27 29 36 35 38 39 40 40 40 39 39 36 28 27 27 28 31 34 36 39 41 38 34 36 38 38 38 36 34 38 44 53 68 80 83 90
28 30 31 39 41 31 27 29 30 35 36 39 41 42 43 42 40 34 29 26 26 26 28 30 34 38 43 45 39 36 39 41 40 39 37 34 35 43 53 67 83 86 91 93
27 33 34 41 46 36 29 32 36 38 40 43 47 47 43 38 33 28 26 25 26 27 30 34 39 44 48 41 38 40 44 44 43 40 36 33 41 50 63 84 87 92 92 91
31 28 35 35 36 31 34 36 38 41 47 50 49 45 39 33 28 27 26 27 28 32 36 40 44 48 44 42 44 45 48 48 44 38 35 39 46 58 79 90 91 93 93 91
28 28 32 34 32 35 38 43 48 51 50 48 42 37 32 29 29 29 28 30 33 36 42 47 50 46 45 49 50 50 51 49 43 38 40 44 53 69 90 95 94 94 93 93
28 31 36 39 40 43 45 47 48 46 42 39 36 32 30 30 28 28 29 32 37 42 48 50 48 48 51 53 55 57 53 48 43 41 38 48 63 86 93 96 96 94 95 97
31 34 39 40 40 44 46 45 44 42 38 35 31 30 29 29 29 29 30 35 38 43 44 49 52 53 55 61 63 62 55 47 44 39 43 55 80 91 96 93 93 97 96 97